CW5102 Weather Reports


time (UTC)temp
C
wind
direction
speed
KPH
gust
KPH
rain 1hr
cm
rain 24hr
cm
rain mn
cm
humidity
%
barometer
mb
20260510170703 12 21 1.6 20.9 0.00 0.00 0.00 37 1019.4
20260510170203 12 27 6.4 19.3 0.00 0.00 0.00 34 1019.6
20260510165703 12 37 4.8 19.3 0.00 0.00 0.00 34 1019.5
20260510165203 12 45 3.2 12.9 0.00 0.00 0.00 34 1019.6
20260510164704 12 355 0.0 19.3 0.00 0.00 0.00 37 1019.5
20260510163703 12 14 6.4 27.4 0.00 0.00 0.00 36 1019.6
20260510163204 12 27 3.2 22.5 0.00 0.00 0.00 38 1019.6
20260510162703 12 25 3.2 14.5 0.00 0.00 0.00 43 1019.6
20260510162203 12 30 0.0 14.5 0.00 0.00 0.00 41 1019.5
20260510161703 12 317 0.0 14.5 0.00 0.00 0.00 40 1019.5
20260510160703 12 20 1.6 12.9 0.00 0.00 0.00 39 1019.4
20260510160203 12 16 3.2 12.9 0.00 0.00 0.00 39 1019.3
20260510155703 12 347 1.6 16.1 0.00 0.00 0.00 40 1019.3
20260510155203 12 28 4.8 16.1 0.00 0.00 0.00 38 1019.3
20260510154703 12 66 0.0 11.3 0.00 0.00 0.00 44 1019.3
20260510154203 12 13 0.0 14.5 0.00 0.00 0.00 41 1019.2
20260510153703 11 12 3.2 19.3 0.00 0.00 0.00 39 1019.3
20260510153203 11 95 0.0 19.3 0.00 0.00 0.00 43 1019.2
20260510152703 11 34 3.2 19.3 0.00 0.00 0.00 40 1019.3
20260510152203 11 56 3.2 19.3 0.00 0.00 0.00 39 1019.2
20260510151703 11 36 4.8 19.3 0.00 0.00 0.00 39 1019.2
20260510150703 11 44 3.2 14.5 0.00 0.00 0.00 40 1019.2
20260510145703 11 32 1.6 14.5 0.00 0.00 0.00 41 1019.2
20260510145203 11 49 0.0 14.5 0.00 0.00 0.00 44 1019.2
20260510144704 11 44 0.0 11.3 0.00 0.00 0.00 45 1019.1
20260510144204 10 25 1.6 11.3 0.00 0.00 0.00 44 1019.2
20260510142703 10 0 0.0 16.1 0.00 0.00 0.00 46 1019.2
20260510141203 10 31 4.8 16.1 0.00 0.00 0.00 46 1018.9
20260510140704 10 29 1.6 9.7 0.00 0.00 0.00 46 1018.8
20260510140204 10 52 1.6 9.7 0.00 0.00 0.00 46 1018.9
20260510135704 9 97 1.6 19.3 0.00 0.00 0.00 48 1018.9
20260510135204 9 26 1.6 19.3 0.00 0.00 0.00 47 1018.9
20260510134703 9 44 3.2 11.3 0.00 0.00 0.00 47 1018.8
20260510134203 9 52 0.0 4.8 0.00 0.00 0.00 49 1018.8
20260510133703 8 50 0.0 4.8 0.00 0.00 0.00 50 1018.8
20260510133203 8 49 0.0 4.8 0.00 0.00 0.00 50 1018.7
20260510132703 8 5 0.0 0.0 0.00 0.00 0.00 53 1018.7
20260510132203 8 4 0.0 0.0 0.00 0.00 0.00 52 1018.6
20260510131703 8 4 0.0 0.0 0.00 0.00 0.00 51 1018.6
20260510131203 8 4 0.0 0.0 0.00 0.00 0.00 52 1018.6
20260510130703 8 4 0.0 0.0 0.00 0.00 0.00 54 1018.6
20260510130203 8 4 0.0 0.0 0.00 0.00 0.00 52 1018.6
20260510125703 8 4 0.0 0.0 0.00 0.00 0.00 51 1018.6
20260510125203 8 4 0.0 4.8 0.00 0.00 0.00 51 1018.5
20260510124704 7 4 1.6 4.8 0.00 0.00 0.00 52 1018.4
20260510123703 7 4 0.0 0.0 0.00 0.00 0.00 53 1018.3
20260510123203 7 4 0.0 0.0 0.00 0.00 0.00 53 1018.2
20260510122703 7 4 0.0 0.0 0.00 0.00 0.00 54 1018.2
20260510121703 7 4 0.0 0.0 0.00 0.00 0.00 55 1018.1
20260510121203 7 4 0.0 0.0 0.00 0.00 0.00 57 1018.1
20260510120703 7 4 0.0 3.2 0.00 0.00 0.00 55 1018.0
20260510120204 7 3 0.0 3.2 0.00 0.00 0.00 57 1018.0
20260510115703 7 2 0.0 4.8 0.00 0.00 0.00 56 1017.9
20260510114704 7 2 0.0 1.6 0.00 0.00 0.00 55 1017.7
20260510114204 7 0 0.0 3.2 0.00 0.00 0.00 57 1017.7
20260510113703 7 0 0.0 3.2 0.00 0.00 0.00 56 1017.6
20260510113204 7 0 0.0 3.2 0.00 0.00 0.00 55 1017.6
20260510112703 7 331 0.0 3.2 0.00 0.00 0.00 54 1017.5
20260510111704 7 325 0.0 0.0 0.00 0.00 0.00 54 1017.3
20260510111204 7 325 0.0 0.0 0.00 0.00 0.00 54 1017.2
20260510105704 6 325 0.0 0.0 0.00 0.00 0.00 56 1017.0
20260510105204 6 325 0.0 0.0 0.00 0.00 0.00 56 1016.9
20260510104703 6 325 0.0 0.0 0.00 0.00 0.00 56 1016.8
20260510104203 6 325 0.0 0.0 0.00 0.00 0.00 56 1016.8
20260510103704 6 325 0.0 0.0 0.00 0.00 0.00 56 1016.7
20260510102703 6 325 0.0 0.0 0.00 0.00 0.00 56 1016.6
20260510101704 6 325 0.0 0.0 0.00 0.00 0.00 55 1016.4
20260510101204 6 325 0.0 0.0 0.00 0.00 0.00 55 1016.4
20260510100703 6 325 0.0 0.0 0.00 0.00 0.00 55 1016.5
20260510100203 6 325 0.0 0.0 0.00 0.00 0.00 55 1016.4
20260510095704 6 325 0.0 1.6 0.00 0.00 0.00 55 1016.4
20260510095204 6 325 0.0 1.6 0.00 0.00 0.00 56 1016.3
20260510094703 6 324 0.0 0.0 0.00 0.00 0.00 56 1016.2
20260510094203 6 324 0.0 0.0 0.00 0.00 0.00 56 1016.1
20260510093704 6 324 0.0 0.0 0.00 0.00 0.00 56 1016.1
20260510093203 6 324 0.0 0.0 0.00 0.00 0.00 56 1015.9
20260510092703 6 324 0.0 0.0 0.00 0.00 0.00 55 1015.8
20260510092204 7 324 0.0 0.0 0.00 0.00 0.00 54 1015.9
20260510091703 7 324 0.0 0.0 0.00 0.00 0.00 54 1015.9
20260510091203 7 324 0.0 0.0 0.00 0.00 0.00 54 1015.8
20260510090704 7 324 0.0 0.0 0.00 0.00 0.00 54 1015.8
20260510090204 7 324 0.0 0.0 0.00 0.00 0.00 54 1015.8
20260510085703 7 324 0.0 0.0 0.00 0.00 0.00 54 1015.8
20260510085203 7 324 0.0 0.0 0.00 0.00 0.00 54 1015.8
20260510084704 7 324 0.0 0.0 0.00 0.00 0.00 54 1015.7
20260510084205 7 324 0.0 0.0 0.00 0.00 0.00 53 1015.5
20260510083703 7 324 0.0 0.0 0.00 0.00 0.00 53 1015.4
20260510083203 7 324 0.0 4.8 0.00 0.00 0.00 53 1015.3
20260510082703 7 324 0.0 4.8 0.00 0.00 0.00 53 1015.3
20260510082204 7 347 0.0 4.8 0.00 0.00 0.00 54 1015.3
20260510081704 7 348 0.0 0.0 0.00 0.00 0.00 53 1015.2
20260510081202 7 348 0.0 0.0 0.00 0.00 0.00 53 1015.2
20260510080703 7 348 0.0 0.0 0.00 0.00 0.00 52 1015.2
20260510080202 7 348 0.0 0.0 0.00 0.00 0.00 52 1015.2
20260510075702 7 348 0.0 0.0 0.00 0.00 0.00 52 1015.1
20260510075202 7 348 0.0 0.0 0.00 0.00 0.00 54 1015.1
20260510074702 7 348 0.0 0.0 0.00 0.00 0.00 53 1015.0
20260510074202 7 348 0.0 0.0 0.00 0.00 0.00 53 1015.0
20260510073702 7 348 0.0 0.0 0.00 0.00 0.00 53 1015.0
20260510073203 7 348 0.0 0.0 0.00 0.00 0.00 53 1015.0
20260510072203 7 348 0.0 0.0 0.00 0.00 0.00 51 1015.1
20260510071702 7 348 0.0 0.0 0.00 0.00 0.00 50 1015.1
20260510071202 7 348 0.0 0.0 0.00 0.00 0.00 50 1015.1
20260510070702 7 348 0.0 0.0 0.00 0.00 0.00 50 1015.2
20260510070202 7 348 0.0 0.0 0.00 0.00 0.00 49 1015.2
20260510065702 7 348 0.0 0.0 0.00 0.00 0.00 49 1015.0
20260510065202 7 348 0.0 0.0 0.00 0.00 0.00 48 1015.1
20260510064702 7 348 0.0 0.0 0.00 0.00 0.00 49 1015.1
20260510064202 8 348 0.0 0.0 0.00 0.00 0.00 48 1015.0
20260510063702 8 348 0.0 0.0 0.00 0.00 0.00 48 1015.0
20260510063202 8 348 0.0 0.0 0.00 0.00 0.00 48 1015.0
20260510062702 8 348 0.0 0.0 0.00 0.00 0.00 48 1015.0
20260510062203 8 348 0.0 0.0 0.00 0.00 0.00 47 1015.0
20260510061702 8 348 0.0 0.0 0.00 0.00 0.00 47 1015.0
20260510061203 8 348 0.0 0.0 0.00 0.00 0.00 46 1015.0
20260510060203 8 348 0.0 0.0 0.00 0.00 0.00 45 1015.0
20260510055703 8 348 0.0 0.0 0.00 0.00 0.00 45 1015.0
20260510055202 8 348 0.0 0.0 0.00 0.00 0.00 45 1014.9
20260510054203 8 348 0.0 0.0 0.00 0.00 0.00 44 1014.9
20260510053702 8 348 0.0 0.0 0.00 0.00 0.00 43 1014.9
20260510053203 8 348 0.0 0.0 0.00 0.00 0.00 43 1014.8
20260510052702 8 348 0.0 0.0 0.00 0.00 0.00 44 1014.8
20260510052202 8 348 0.0 0.0 0.00 0.00 0.00 44 1014.6
20260510051702 8 348 0.0 0.0 0.00 0.00 0.00 41 1014.6
20260510051202 8 348 0.0 0.0 0.00 0.00 0.00 41 1014.6
20260510050203 8 348 0.0 0.0 0.00 0.00 0.00 42 1014.6
20260510045202 9 348 0.0 0.0 0.00 0.00 0.00 41 1014.5
20260510044704 9 348 0.0 0.0 0.00 0.00 0.00 42 1014.5
20260510044202 9 348 0.0 0.0 0.00 0.00 0.00 41 1014.6
20260510043703 9 348 0.0 4.8 0.00 0.00 0.00 39 1014.6
20260510043203 9 348 0.0 4.8 0.00 0.00 0.00 39 1014.6
20260510042703 9 346 0.0 4.8 0.00 0.00 0.00 38 1014.6
20260510042203 9 345 0.0 4.8 0.00 0.00 0.00 38 1014.6
20260510041703 10 13 0.0 4.8 0.00 0.00 0.00 38 1014.6
20260510041203 10 13 0.0 4.8 0.00 0.00 0.00 37 1014.6
20260510040702 10 13 1.6 4.8 0.00 0.00 0.00 37 1014.6
20260510034702 10 0 0.0 4.8 0.00 0.00 0.00 36 1014.4
20260510033702 10 0 0.0 9.7 0.00 0.00 0.00 35 1014.2
20260510033202 10 0 0.0 8.0 0.00 0.00 0.00 35 1014.1
20260510032702 10 16 1.6 9.7 0.00 0.00 0.00 34 1014.1
20260510031703 10 6 1.6 9.7 0.00 0.00 0.00 34 1014.0
20260510031203 11 3 1.6 4.8 0.00 0.00 0.00 34 1013.9
20260510030702 11 359 0.0 4.8 0.00 0.00 0.00 33 1013.8
20260510030203 11 358 1.6 4.8 0.00 0.00 0.00 33 1013.7
20260510025702 11 358 0.0 9.7 0.00 0.00 0.00 33 1013.7
20260510025203 11 357 1.6 11.3 0.00 0.00 0.00 33 1013.6
20260510024702 11 25 0.0 11.3 0.00 0.00 0.00 33 1013.5
20260510024203 11 22 3.2 9.7 0.00 0.00 0.00 32 1013.4
20260510023703 11 2 3.2 14.5 0.00 0.00 0.00 32 1013.3
20260510023202 11 35 1.6 14.5 0.00 0.00 0.00 32 1013.1
20260510022703 11 6 1.6 14.5 0.00 0.00 0.00 32 1013.0
20260510022203 11 9 3.2 9.7 0.00 0.00 0.00 31 1012.9
20260510021702 11 0 0.0 8.0 0.00 0.00 0.00 31 1012.8
20260510021202 11 13 1.6 14.5 0.00 0.00 0.00 31 1012.7
20260510020703 12 8 3.2 19.3 0.00 0.00 0.00 30 1012.7
20260510020203 12 18 3.2 19.3 0.00 0.00 0.00 30 1012.6
20260510015703 12 4 3.2 12.9 0.00 0.00 0.00 31 1012.5
20260510015202 12 19 0.0 19.3 0.00 0.00 0.00 30 1012.3
20260510014702 12 16 1.6 19.3 0.00 0.00 0.00 30 1012.2
20260510013703 12 4 1.6 14.5 0.00 0.00 0.00 29 1012.0
20260510013204 12 359 3.2 14.5 0.00 0.00 0.00 28 1011.9
20260510012703 12 33 8.0 14.5 0.00 0.00 0.00 28 1011.9
20260510011702 12 16 6.4 20.9 0.00 0.00 0.00 28 1011.8
20260510011203 13 18 4.8 16.1 0.00 0.00 0.00 28 1011.7
20260510010203 13 14 3.2 19.3 0.00 0.00 0.00 27 1011.5
20260510005202 13 10 4.8 19.3 0.00 0.00 0.00 27 1011.4
20260510004702 13 10 4.8 25.7 0.00 0.00 0.00 26 1011.4
20260510004204 13 10 6.4 25.7 0.00 0.00 0.00 26 1011.3
20260510003703 13 25 8.0 22.5 0.00 0.00 0.00 26 1011.2
20260510002702 13 17 11.3 32.2 0.00 0.00 0.00 25 1011.1
20260510002202 13 34 3.2 20.9 0.00 0.00 0.00 26 1011.1
20260510001203 14 2 6.4 20.9 0.00 0.00 0.00 25 1011.1
20260510000702 14 4 3.2 19.3 0.00 0.00 0.00 25 1011.0
20260510000204 14 0 3.2 19.3 0.00 0.00 0.00 25 1010.9
20260509235702 14 9 3.2 19.3 0.00 0.00 0.00 25 1010.7
20260509235202 14 10 1.6 32.2 0.00 0.00 0.00 25 1010.7
20260509234702 15 22 11.3 32.2 0.00 0.00 0.00 23 1010.7
20260509234204 15 25 4.8 24.1 0.00 0.00 0.00 24 1010.6
20260509233703 15 354 11.3 27.4 0.00 0.00 0.00 24 1010.6
20260509233203 15 25 6.4 27.4 0.00 0.00 0.00 24 1010.5
20260509232703 15 62 3.2 19.3 0.00 0.00 0.00 27 1010.5
20260509232203 15 54 1.6 33.8 0.00 0.00 0.00 26 1010.4
20260509231703 15 5 6.4 33.8 0.00 0.00 0.00 25 1010.5
20260509231204 15 5 8.0 33.8 0.00 0.00 0.00 24 1010.4
20260509230703 15 356 3.2 32.2 0.00 0.00 0.00 25 1010.3
20260509225703 15 358 4.8 25.7 0.00 0.00 0.00 24 1010.2
20260509225202 15 36 3.2 32.2 0.00 0.00 0.00 25 1010.2
20260509224703 15 26 11.3 32.2 0.00 0.00 0.00 22 1010.2
20260509224205 15 18 11.3 32.2 0.00 0.00 0.00 22 1010.0
20260509222703 15 61 4.8 22.5 0.00 0.00 0.00 25 1009.9
20260509222203 15 36 4.8 29.0 0.00 0.00 0.00 24 1009.9
20260509221703 15 47 8.0 29.0 0.00 0.00 0.00 22 1009.9
20260509221202 15 32 4.8 24.1 0.00 0.00 0.00 23 1009.8
20260509220703 15 6 6.4 22.5 0.00 0.00 0.00 22 1009.7
20260509220203 15 346 9.7 22.5 0.00 0.00 0.00 24 1009.7
20260509215703 15 38 3.2 25.7 0.00 0.00 0.00 25 1009.6
20260509215202 15 30 6.4 25.7 0.00 0.00 0.00 22 1009.7
20260509213702 16 355 3.2 19.3 0.00 0.00 0.00 23 1009.6
20260509213203 16 36 4.8 24.1 0.00 0.00 0.00 26 1009.7
20260509212703 16 17 3.2 25.7 0.00 0.00 0.00 24 1009.5
20260509212203 16 358 8.0 25.7 0.00 0.00 0.00 22 1009.5
20260509211703 16 10 4.8 25.7 0.00 0.00 0.00 24 1009.5
20260509211203 16 19 8.0 29.0 0.00 0.00 0.00 23 1009.5
20260509210703 16 354 4.8 29.0 0.00 0.00 0.00 24 1009.4
20260509210203 16 9 8.0 22.5 0.00 0.00 0.00 22 1009.4
20260509205702 16 4 1.6 35.4 0.00 0.00 0.00 24 1009.4
20260509204703 16 21 8.0 35.4 0.00 0.00 0.00 23 1009.3
20260509204203 16 4 11.3 32.2 0.00 0.00 0.00 23 1009.3
20260509203704 16 17 3.2 27.4 0.00 0.00 0.00 24 1009.3
20260509202703 16 8 8.0 38.6 0.00 0.00 0.00 23 1009.3
20260509202202 16 46 3.2 32.2 0.00 0.00 0.00 25 1009.3
20260509201203 16 49 11.3 22.5 0.00 0.00 0.00 22 1009.1
20260509200703 16 16 4.8 32.2 0.00 0.00 0.00 25 1009.1
20260509200203 16 44 4.8 32.2 0.00 0.00 0.00 23 1009.1
20260509195703 16 10 8.0 25.7 0.00 0.00 0.00 24 1009.1
20260509195203 16 14 6.4 24.1 0.00 0.00 0.00 24 1009.1
20260509194203 16 6 3.2 19.3 0.00 0.00 0.00 26 1008.9
20260509193703 15 12 8.0 22.5 0.00 0.00 0.00 26 1009.0
20260509193204 15 35 6.4 22.5 0.00 0.00 0.00 26 1008.8
20260509192702 15 38 1.6 32.2 0.00 0.00 0.00 28 1008.8
20260509191703 15 7 9.7 32.2 0.00 0.00 0.00 26 1008.8
20260509191204 15 0 9.7 32.2 0.00 0.00 0.00 26 1008.9
20260509190704 15 12 9.7 25.7 0.00 0.00 0.00 26 1008.7
20260509190203 15 50 4.8 20.9 0.00 0.00 0.00 29 1008.6
20260509185703 15 354 8.0 19.3 0.00 0.00 0.00 30 1008.5
20260509185203 15 23 3.2 19.3 0.00 0.00 0.00 30 1008.4
20260509184703 15 62 3.2 24.1 0.00 0.00 0.00 29 1008.3
20260509184203 15 32 4.8 24.1 0.00 0.00 0.00 29 1008.4
20260509183204 15 352 1.6 29.0 0.00 0.00 0.00 32 1008.4
20260509182703 14 1 6.4 29.0 0.00 0.00 0.00 30 1008.4
20260509182203 14 29 3.2 27.4 0.00 0.00 0.00 33 1008.3
20260509181703 14 358 3.2 29.0 0.00 0.00 0.00 33 1008.2
20260509181203 14 22 9.7 29.0 0.00 0.00 0.00 33 1008.2
20260509180703 14 55 4.8 20.9 0.00 0.00 0.00 33 1008.1
20260509180203 14 32 1.6 22.5 0.00 0.00 0.00 35 1008.1
20260509175203 13 34 8.0 25.7 0.00 0.00 0.00 32 1008.2
20260509174703 13 23 3.2 22.5 0.00 0.00 0.00 32 1008.2
20260509174203 13 17 9.7 27.4 0.00 0.00 0.00 33 1008.2
20260509173703 13 3 6.4 32.2 0.00 0.00 0.00 33 1008.2
20260509173203 13 351 6.4 32.2 0.00 0.00 0.00 34 1008.2
20260509172703 13 4 8.0 27.4 0.00 0.00 0.00 34 1008.0
20260509171703 13 19 6.4 24.1 0.00 0.00 0.00 34 1008.0
20260509171203 13 23 3.2 24.1 0.00 0.00 0.00 34 1008.0